This demonstration page uses our WeatherBlox Daily Observations layout. Learn more.

Left ArrowRight Arrow

Hourly Observations for May 8, 2022

Temp ( °F °C ) Dew Point ( °F °C ) Humidity (%) Winds ( mph kmh ) Pressure ( in mb ) Visibility ( mi km ) Precip ( " mm )
12:53 am 00:53 Cloudy 69 20.6 58 14.4 68 68 SSE 20 31 29.53 1000 10 16 0.00 0.00
1:53 am 01:53 Cloudy 69 20.6 61 16.1 76 76 SSE 20 31 29.49 999 10 16 0.00 0.00
2:53 am 02:53 Cloudy 69 20.6 63 17.2 81 81 SSE 18 30 29.46 998 10 16 0.00 0.00
3:53 am 03:53 Cloudy 70 21.1 65 18.3 84 84 SSE 23 37 29.44 997 9 14 0.00 0.00
4:53 am 04:53 Cloudy 71 21.7 66 18.9 84 84 S 21 33 29.44 997 8 13 0.00 0.00
5:53 am 05:53 Cloudy 72 22.2 66 18.9 82 82 SSE 21 33 29.43 997 7 11 0.00 0.00
6:53 am 06:53 Cloudy with Haze 72 22.2 67 19.4 84 84 S 16 26 29.45 997 6 10 0.00 0.00
7:53 am 07:53 Cloudy with Haze 72 22.2 67 19.4 84 84 S 16 26 29.47 998 5 8 0.00 0.00
8:14 am 08:14 Cloudy with Haze 73 22.8 67 19.4 81 81 S 16 26 29.47 998 5 8 0.00 0.00
8:35 am 08:35 Cloudy with Haze 74 23.3 68 20 82 82 S 20 31 29.46 998 5 8 0.00 0.00
8:53 am 08:53 Cloudy with Haze 74 23.3 68 20 82 82 S 17 28 29.48 998 5 8 0.00 0.00
9:53 am 09:53 Cloudy with Haze 74 23.3 69 20.6 85 85 SSE 16 26 29.48 998 5 8 0.00 0.00
10:53 am 10:53 Cloudy with Haze 76 24.4 69 20.6 79 79 SSE 13 20 29.47 998 5 8 0.00 0.00
11:37 am 11:37 Mostly Cloudy with Haze 78 25.6 71 21.7 79 79 S 14 22 29.46 998 5 8 0.00 0.00
11:53 am 11:53 Cloudy with Haze 81 27.2 72 22.2 74 74 S 15 24 29.48 998 5 8 0.00 0.00
12:53 pm 12:53 Cloudy with Haze 82 27.8 68 20 63 63 SSW 14 22 29.47 998 6 10 0.00 0.00
1:53 pm 13:53 Cloudy with Haze 84 28.9 69 20.6 61 61 S 16 26 29.46 998 6 10 0.00 0.00
2:53 pm 14:53 Cloudy 86 30 67 19.4 53 53 S 14 22 29.45 997 8 13 0.00 0.00
3:53 pm 15:53 Mostly Cloudy 86 30 65 18.3 49 49 SW 13 20 29.45 997 10 16 0.00 0.00
4:53 pm 16:53 Mostly Cloudy 86 30 63 17.2 46 46 SSW 14 22 29.43 997 10 16 0.00 0.00
5:53 pm 17:53 Mostly Cloudy 86 30 63 17.2 46 46 S 12 19 29.42 996 10 16 0.00 0.00
6:53 pm 18:53 Mostly Cloudy 85 29.4 63 17.2 48 48 S 12 19 29.41 996 10 16 0.00 0.00
7:53 pm 19:53 Mostly Cloudy 80 26.7 64 17.8 58 58 SSE 8 13 29.42 996 10 16 0.00 0.00
8:53 pm 20:53 Partly Cloudy 77 25 61 16.1 58 58 SSE 6 9 29.43 997 10 16 0.00 0.00
9:53 pm 21:53 Partly Cloudy 78 25.6 67 19.4 69 69 SE 14 22 29.43 997 10 16 0.00 0.00
10:53 pm 22:53 Partly Cloudy 77 25 70 21.1 79 79 SSE 14 22 29.43 997 10 16 0.00 0.00
11:53 pm 23:53 Partly Cloudy 77 25 70 21.1 79 79 SSE 21 33 29.40 996 8 13 0.00 0.00

Powered by AerisWeather